Wind_Speed
67 66 65 62 60 59 62 60 56 53 54 55 53 52 49 49 45 43 44 42 39 38 34 33 31 30 29 31 28 31 32 36 40 39 38 38 39 39 40 40 41 40 41 41 39 39 40 39 39
70 72 71 71 66 65 69 67 60 56 56 54 55 55 51 47 51 51 46 44 45 44 43 42 42 39 35 35 35 28 27 29 33 39 43 44 43 42 42 42 41 41 43 42 40 40 39 39 40
73 73 72 72 69 71 76 73 66 60 60 58 58 55 51 50 49 51 50 48 47 46 45 41 44 45 44 41 37 38 34 28 27 26 29 36 41 46 47 49 49 46 46 46 45 45 44 44 45
74 76 74 74 71 75 79 80 74 66 65 63 60 59 58 55 53 52 54 53 51 48 46 47 42 44 45 45 42 39 40 39 39 34 27 22 20 21 22 27 37 44 50 51 51 52 53 52 50
75 74 71 70 75 77 81 84 79 73 68 68 66 63 62 61 58 56 56 57 55 53 49 48 44 43 46 47 46 41 41 45 44 40 38 26 27 25 25 26 31 33 39 47 51 53 56 57 57
91 88 85 80 76 83 83 85 82 78 75 70 70 68 66 66 62 58 58 58 56 54 52 51 45 43 46 50 49 40 41 39 45 41 40 39 30 29 26 28 32 36 35 38 44 48 50 51 54
78 88 94 90 90 86 86 89 87 83 80 77 73 72 70 70 66 61 62 62 60 59 58 55 52 46 45 47 49 47 40 43 41 44 47 40 35 32 31 31 34 31 24 30 31 35 41 46 48
72 76 77 85 98 94 97 95 94 87 84 77 76 77 77 74 71 68 66 66 67 66 63 60 56 51 44 44 46 46 43 40 47 44 44 48 46 34 33 37 38 35 34 36 42 40 41 42 42
71 69 73 78 80 98 104 102 98 90 86 82 77 77 79 77 75 74 70 69 69 68 64 60 57 55 52 48 48 45 40 36 36 40 38 43 41 37 41 46 42 40 42 41 41 42 42 42 41
61 67 70 72 76 80 92 106 107 101 93 85 80 83 81 79 78 75 76 75 73 69 63 61 59 56 55 51 50 48 43 42 43 39 39 40 41 40 46 46 47 45 45 44 45 44 44 44 44
46 52 60 69 74 79 84 89 101 107 100 100 90 84 82 81 82 78 79 76 73 71 66 63 61 60 58 54 53 50 47 46 46 44 38 39 40 43 45 49 47 48 46 46 45 45 45 45 48
39 41 46 54 62 68 78 84 88 95 107 104 98 91 85 82 82 79 85 81 72 70 67 66 63 61 59 56 55 54 52 46 47 43 43 44 46 46 49 49 51 50 48 45 45 46 46 46 49
34 38 37 42 51 56 65 75 83 85 91 99 107 98 91 89 88 83 82 80 76 73 69 65 63 61 58 58 59 57 54 50 45 47 45 46 48 52 51 52 53 56 51 46 44 45 46 49 48
29 29 34 36 38 43 51 61 69 82 85 86 92 103 96 93 93 89 83 76 78 75 73 69 64 61 59 60 61 58 50 47 46 46 47 49 50 53 53 53 59 56 47 46 44 45 48 51 50
30 22 22 30 35 38 41 46 56 67 77 84 83 88 103 97 95 91 91 87 79 75 73 72 67 65 64 62 61 54 52 51 47 47 47 49 53 51 56 58 55 49 48 47 52 49 50 50 51
38 24 14 16 25 32 36 42 45 51 62 74 80 83 87 100 98 95 93 87 81 70 72 71 69 67 66 63 57 53 54 50 48 46 50 53 54 53 48 46 46 45 53 52 53 54 49 54 59
37 32 27 16 14 21 29 35 37 42 50 60 69 78 83 87 94 100 96 89 84 76 71 65 66 65 62 59 49 52 54 56 53 52 55 55 43 42 43 45 46 55 56 48 50 55 61 62 60
46 36 25 22 16 14 20 29 32 35 44 50 58 67 78 84 87 94 99 92 87 83 75 59 57 61 58 57 53 55 56 53 55 54 48 49 50 50 50 55 60 65 69 69 66 65 64 57 53
57 44 33 23 18 16 14 19 27 33 35 42 50 59 67 77 84 86 97 94 89 84 74 72 65 61 57 56 52 59 53 52 51 47 48 51 51 49 49 54 57 56 61 65 66 55 50 52 55
63 50 40 30 21 19 14 17 23 30 38 41 45 52 61 70 79 84 89 96 91 83 71 65 67 65 62 57 54 49 47 47 44 45 51 48 44 45 54 62 59 60 66 57 54 52 53 55 54
66 59 45 35 30 27 19 16 19 25 33 40 45 51 54 61 73 82 84 88 96 85 78 70 64 65 59 51 45 45 49 47 47 52 45 42 50 58 53 55 65 57 46 48 47 54 41 55 60
67 62 53 40 33 27 23 26 29 27 24 33 43 44 53 57 66 75 81 80 81 86 71 61 68 65 59 55 49 38 47 41 31 36 43 46 48 66 64 56 51 50 47 48 59 57 66 67 72
66 65 59 48 38 38 34 30 33 29 27 22 33 30 44 55 60 70 76 78 77 75 78 73 63 64 59 60 43 48 44 39 42 46 43 49 57 61 52 50 58 57 59 56 60 72 73 76 72
69 66 64 59 48 38 31 28 29 28 22 20 23 22 32 49 56 61 69 71 71 70 70 71 64 55 57 59 69 67 53 54 51 48 46 50 59 67 64 53 64 69 73 71 75 77 74 74 75
68 66 65 63 54 43 38 30 31 33 22 12 11 18 24 41 50 54 62 65 66 66 67 69 68 61 57 59 63 64 65 56 60 55 52 46 54 74 65 68 69 63 67 73 81 78 78 81 80
65 63 63 64 64 52 46 36 34 34 23 11 1 12 25 35 49 52 54 58 60 62 64 72 74 66 63 61 58 59 66 66 67 63 64 75 69 77 78 83 72 70 75 82 81 80 78 78 71
64 62 63 66 63 60 50 45 36 36 32 20 7 11 23 33 46 49 47 53 53 56 60 65 74 71 67 65 64 68 68 71 71 70 71 70 75 77 83 77 78 77 80 81 80 82 85 89 93
62 63 61 60 62 63 57 50 44 33 32 26 12 9 16 30 42 42 42 44 41 39 47 49 68 77 73 68 67 63 65 58 52 60 71 72 68 71 84 82 78 83 87 93 89 90 93 98 100
64 64 61 60 59 59 59 53 46 36 32 29 16 10 16 27 35 36 39 40 36 41 51 53 52 70 80 77 71 71 64 66 70 71 61 63 72 78 86 90 89 87 90 93 93 95 96 99 103
60 62 64 61 57 58 59 57 49 42 30 26 21 9 13 17 25 37 42 45 49 49 51 48 51 54 65 77 75 55 63 75 69 68 70 72 74 76 82 87 90 88 87 90 94 97 101 109 112
Wind_Direction
261 259 258 259 259 258 256 254 252 249 250 251 247 246 249 246 249 250 252 253 250 243 240 242 242 250 247 249 250 254 260 262 261 263 263 264 263 264 266 264 264 265 268 270 270 271 272 274 277
260 259 257 257 256 256 257 255 249 247 247 247 246 245 243 244 247 249 248 249 252 256 249 249 250 248 249 254 257 255 257 262 263 261 260 262 265 266 267 268 269 269 269 269 270 271 271 271 275
260 257 257 257 255 253 254 254 251 245 244 244 243 246 247 246 246 248 247 247 248 248 249 250 251 253 255 254 253 254 254 257 255 265 267 266 265 266 267 269 268 269 270 272 273 272 272 274 276
258 255 257 258 253 251 251 253 250 245 243 244 244 246 248 248 248 250 249 249 247 245 248 250 254 254 255 252 253 255 252 252 256 260 259 256 260 271 271 281 275 271 269 269 271 274 274 275 276
258 253 252 254 250 249 250 250 248 245 243 244 243 244 247 248 249 251 249 248 246 245 246 251 255 256 258 254 253 254 255 253 251 256 259 244 260 278 282 294 290 286 278 270 269 271 273 275 276
263 256 253 254 251 250 247 249 247 244 243 242 241 243 244 246 249 248 245 244 245 243 246 250 254 255 257 257 253 253 253 257 255 250 254 248 260 273 287 297 300 296 289 283 278 274 273 275 276
262 255 251 253 249 251 247 247 246 245 242 241 240 241 243 244 246 244 245 244 244 245 248 250 254 255 257 261 259 259 259 257 259 252 254 258 261 273 279 300 297 297 293 304 300 294 290 280 277
262 258 254 248 243 244 246 246 254 246 241 237 237 240 242 245 245 243 245 246 246 248 250 252 253 255 259 259 260 263 263 265 263 263 263 255 269 267 279 298 304 292 294 298 301 295 290 286 282
265 260 253 250 246 241 243 246 247 246 240 237 235 237 238 242 245 244 244 245 245 248 249 252 253 257 257 258 261 262 258 257 258 259 270 263 262 270 274 295 298 292 290 296 292 289 287 284 281
264 259 254 250 246 243 242 242 243 243 240 237 237 237 238 238 242 244 245 244 245 246 247 250 253 255 255 259 263 267 259 256 258 268 272 260 258 268 285 290 294 297 288 295 299 290 289 287 286
271 262 255 251 246 241 242 242 242 240 239 237 238 236 235 237 239 242 243 242 243 242 244 248 251 254 257 259 264 265 263 258 261 268 268 266 272 281 282 288 291 292 291 294 301 291 292 290 290
280 271 261 254 251 247 243 241 240 242 237 236 236 232 233 236 235 240 244 244 245 245 243 244 248 251 255 258 261 265 267 265 266 264 260 266 272 278 282 285 288 287 286 289 293 289 291 291 293
286 277 270 262 255 249 245 242 240 240 240 239 236 230 228 233 234 237 240 243 244 244 245 245 248 250 256 258 261 266 269 264 268 263 261 264 273 279 281 283 287 286 286 287 296 286 287 290 293
310 287 271 265 261 255 250 246 242 240 240 240 239 233 227 228 232 235 235 241 240 243 244 246 246 249 252 255 262 266 262 265 266 262 264 269 275 282 280 279 282 285 282 286 292 285 288 285 292
331 308 283 267 259 258 256 250 244 241 238 238 237 237 232 229 230 233 235 236 239 242 243 245 246 247 249 254 260 260 260 264 264 265 268 271 277 278 279 280 284 279 285 286 293 282 279 286 292
343 338 323 290 269 261 260 254 245 242 238 236 235 235 233 230 232 233 235 235 235 237 239 240 243 247 250 253 260 261 264 262 263 263 269 274 278 273 277 279 281 290 290 291 283 282 288 292 296
357 347 337 330 298 268 263 260 253 244 240 237 235 233 231 231 229 233 235 234 233 232 232 236 242 245 248 253 259 257 259 264 265 275 270 277 271 272 273 277 282 293 296 292 289 288 290 291 293
7 359 345 324 322 290 265 263 259 248 243 238 234 234 230 228 229 227 230 232 232 232 232 232 240 242 244 247 249 254 256 257 266 269 266 266 267 268 275 283 291 292 291 293 293 292 287 292 280
10 6 359 343 318 311 277 269 261 255 244 244 239 231 230 226 227 228 228 230 232 231 233 236 238 240 240 244 249 249 253 262 266 266 266 267 275 286 290 294 297 295 296 292 289 291 293 284 282
15 11 4 1 353 330 313 261 258 259 252 241 238 234 227 225 226 227 226 228 231 230 229 237 235 237 236 241 244 248 254 252 251 260 272 280 280 286 290 299 297 290 294 292 289 291 291 287 285
18 15 10 2 358 341 327 306 293 271 254 252 240 233 230 224 223 223 226 226 227 227 228 231 230 233 237 237 241 247 250 254 266 276 274 278 289 290 297 292 291 293 286 284 287 289 287 294 289
16 15 12 10 4 0 356 343 333 315 280 259 253 237 229 224 220 222 223 223 224 226 223 224 230 232 233 234 243 256 253 258 260 265 278 283 282 291 293 288 288 287 275 276 288 289 289 286 285
14 15 14 13 8 8 6 349 346 329 309 276 255 240 225 224 219 217 220 223 220 220 218 216 226 230 227 229 225 232 241 243 238 244 264 282 286 282 282 274 277 271 276 284 287 290 293 292 290
14 13 14 15 13 11 11 1 352 342 315 292 260 240 216 219 219 215 216 219 220 215 213 213 218 220 222 226 227 230 242 245 246 255 270 269 265 272 274 270 272 278 279 276 279 282 289 292 286
14 13 12 15 16 9 10 16 8 360 343 309 255 219 203 209 216 214 213 215 216 214 209 203 210 217 223 227 232 232 238 240 247 253 257 254 265 269 275 276 276 270 272 278 278 288 289 290 288
13 14 16 16 15 14 8 19 17 11 5 359 335 199 189 196 207 208 211 212 211 212 210 205 205 212 218 220 221 227 232 240 242 242 244 250 261 253 266 271 270 266 273 274 282 284 284 284 283
13 16 15 17 15 14 13 12 23 22 19 23 42 167 186 187 199 203 203 207 209 209 207 206 210 210 216 218 223 227 234 241 246 253 255 255 258 262 269 268 268 266 271 273 277 280 283 284 285
14 16 17 17 17 15 16 14 16 26 28 31 51 133 174 184 191 198 197 198 195 200 199 204 210 212 215 220 221 225 231 233 241 241 246 247 253 255 256 264 267 271 274 279 279 281 281 283 285
14 17 17 17 19 18 18 17 16 23 31 37 46 102 166 179 187 191 180 182 184 197 205 205 209 215 219 224 227 230 231 235 238 248 249 253 257 257 259 263 268 271 274 279 280 281 279 283 286
12 16 16 16 17 18 19 18 18 20 27 38 49 97 151 185 193 184 177 178 181 189 205 204 210 218 222 226 230 229 240 239 238 242 242 250 252 254 256 262 266 269 272 274 276 278 281 283 286
Height
10870 10871 10874 10877 10882 10883 10880 10883 10890 10892 10895 10897 10900 10902 10907 10909 10912 10916 10917 10920 10922 10923 10924 10925 10926 10928 10929 10931 10932 10933 10934 10935 10936 10938 10938 10939 10939 10939 10938 10939 10939 10941 10941 10941 10942 10941 10939 10940 10940
10854 10855 10858 10863 10868 10868 10862 10866 10876 10882 10883 10887 10890 10892 10897 10900 10903 10906 10909 10911 10913 10915 10917 10919 10920 10922 10923 10926 10927 10929 10929 10929 10930 10930 10931 10932 10933 10933 10932 10932 10933 10934 10934 10934 10936 10935 10933 10932 10933
10838 10839 10842 10848 10853 10851 10845 10850 10862 10870 10872 10876 10880 10883 10887 10890 10893 10896 10900 10903 10905 10907 10908 10910 10912 10915 10916 10919 10920 10922 10924 10924 10924 10925 10925 10926 10926 10926 10926 10924 10925 10927 10926 10927 10928 10928 10927 10926 10926
10820 10823 10827 10833 10835 10830 10829 10830 10844 10855 10858 10863 10869 10873 10875 10878 10882 10886 10889 10892 10895 10898 10900 10902 10904 10906 10909 10911 10912 10914 10916 10917 10918 10919 10919 10920 10920 10919 10919 10919 10918 10918 10918 10918 10918 10918 10919 10919 10919
10801 10804 10808 10815 10817 10811 10809 10808 10826 10837 10845 10849 10856 10861 10863 10865 10869 10873 10878 10881 10886 10888 10890 10894 10896 10898 10901 10903 10904 10906 10908 10909 10909 10912 10913 10913 10914 10914 10913 10912 10911 10911 10910 10909 10908 10908 10909 10910 10910
10777 10781 10787 10794 10793 10789 10793 10789 10804 10820 10829 10834 10842 10847 10848 10851 10857 10862 10865 10868 10873 10878 10881 10884 10887 10889 10892 10894 10897 10898 10900 10901 10902 10904 10905 10907 10907 10907 10906 10906 10904 10903 10903 10901 10900 10900 10899 10900 10900
10747 10752 10761 10768 10772 10773 10772 10767 10778 10796 10810 10817 10827 10831 10834 10836 10844 10851 10852 10856 10861 10866 10871 10875 10878 10881 10883 10886 10888 10891 10892 10892 10894 10896 10897 10899 10900 10899 10899 10899 10898 10896 10896 10895 10895 10893 10892 10890 10890
10721 10726 10732 10735 10744 10748 10749 10747 10757 10777 10789 10801 10810 10815 10818 10825 10831 10838 10842 10845 10849 10854 10860 10864 10868 10872 10874 10877 10880 10882 10883 10885 10887 10887 10889 10892 10892 10893 10891 10892 10892 10889 10888 10888 10887 10885 10883 10882 10881
10695 10700 10704 10707 10716 10724 10726 10726 10736 10755 10768 10784 10792 10797 10803 10810 10815 10824 10829 10831 10836 10841 10848 10853 10858 10861 10864 10867 10871 10873 10875 10877 10878 10879 10880 10882 10883 10883 10884 10884 10885 10882 10881 10880 10879 10877 10875 10874 10872
10672 10673 10678 10684 10692 10698 10699 10705 10712 10726 10745 10760 10773 10780 10786 10796 10799 10808 10810 10815 10821 10829 10837 10841 10846 10850 10853 10857 10862 10864 10866 10868 10870 10871 10872 10873 10874 10875 10874 10875 10875 10874 10873 10872 10870 10869 10867 10866 10865
10653 10653 10657 10658 10665 10674 10679 10685 10688 10704 10722 10735 10750 10760 10769 10779 10785 10792 10790 10797 10809 10817 10823 10829 10834 10838 10842 10848 10851 10854 10857 10859 10861 10863 10863 10865 10866 10866 10866 10865 10865 10864 10863 10862 10860 10859 10858 10857 10856
10639 10638 10640 10642 10646 10654 10660 10666 10673 10679 10696 10707 10723 10739 10755 10761 10768 10773 10774 10786 10798 10805 10811 10815 10822 10827 10833 10838 10841 10845 10848 10849 10851 10852 10853 10855 10855 10856 10855 10855 10854 10854 10853 10852 10850 10850 10849 10848 10846
10628 10627 10629 10629 10630 10635 10639 10644 10654 10665 10671 10683 10696 10715 10733 10742 10748 10756 10762 10772 10784 10789 10798 10805 10811 10818 10824 10827 10831 10835 10837 10839 10841 10842 10843 10844 10845 10845 10845 10844 10844 10844 10843 10843 10841 10840 10839 10838 10837
10621 10617 10616 10617 10617 10619 10624 10628 10636 10640 10653 10666 10677 10694 10713 10723 10728 10738 10751 10757 10767 10776 10783 10792 10800 10807 10812 10816 10821 10824 10826 10828 10830 10832 10834 10834 10835 10834 10833 10833 10833 10833 10833 10834 10833 10831 10830 10829 10827
10616 10611 10609 10607 10606 10607 10608 10612 10617 10623 10635 10646 10660 10675 10695 10707 10714 10722 10728 10743 10753 10764 10775 10781 10789 10795 10800 10805 10810 10812 10815 10818 10820 10821 10824 10825 10824 10824 10823 10823 10824 10823 10823 10823 10822 10820 10819 10819 10818
10611 10606 10602 10601 10599 10600 10600 10597 10601 10609 10616 10626 10640 10654 10670 10687 10697 10704 10712 10728 10743 10753 10763 10770 10776 10782 10789 10795 10801 10803 10803 10807 10809 10812 10813 10814 10814 10813 10813 10813 10813 10812 10812 10811 10811 10809 10808 10808 10807
10613 10603 10598 10595 10593 10591 10590 10589 10593 10599 10602 10609 10622 10635 10650 10664 10677 10688 10694 10709 10727 10739 10750 10758 10765 10772 10780 10787 10791 10792 10793 10797 10801 10803 10803 10804 10803 10802 10801 10801 10800 10799 10798 10798 10798 10797 10796 10794 10793
10613 10604 10599 10592 10588 10586 10585 10583 10585 10590 10590 10594 10604 10616 10629 10644 10654 10664 10676 10693 10710 10727 10737 10750 10753 10764 10772 10777 10782 10782 10783 10787 10791 10792 10792 10792 10793 10792 10791 10790 10789 10787 10786 10784 10783 10782 10781 10778 10777
10613 10604 10597 10592 10586 10583 10581 10579 10577 10578 10582 10585 10591 10598 10611 10626 10635 10649 10662 10678 10695 10714 10728 10738 10747 10754 10761 10764 10771 10773 10774 10778 10780 10781 10782 10782 10783 10782 10780 10777 10776 10772 10770 10769 10766 10763 10760 10760 10759
10618 10606 10596 10592 10585 10580 10577 10573 10570 10569 10570 10572 10576 10582 10592 10608 10619 10631 10644 10663 10679 10698 10714 10726 10734 10741 10748 10754 10761 10764 10765 10767 10769 10769 10771 10768 10769 10770 10767 10764 10762 10759 10753 10750 10748 10747 10746 10746 10744
10621 10607 10598 10591 10584 10578 10571 10565 10565 10562 10560 10559 10564 10568 10577 10589 10601 10614 10627 10644 10662 10681 10700 10714 10722 10729 10739 10746 10752 10754 10756 10755 10757 10758 10760 10757 10758 10754 10754 10751 10748 10741 10736 10735 10735 10733 10729 10729 10729
10624 10612 10600 10590 10582 10576 10568 10562 10557 10551 10549 10547 10546 10556 10563 10571 10585 10598 10611 10626 10644 10662 10687 10702 10710 10719 10730 10738 10745 10746 10745 10746 10748 10748 10747 10746 10746 10736 10740 10737 10731 10726 10724 10723 10722 10721 10720 10717 10714
10628 10614 10603 10591 10580 10572 10563 10558 10552 10544 10536 10534 10532 10539 10551 10558 10569 10580 10595 10610 10626 10648 10667 10688 10698 10709 10718 10727 10738 10735 10735 10737 10737 10738 10741 10738 10736 10726 10730 10727 10721 10715 10713 10710 10706 10706 10703 10701 10699
10628 10616 10604 10589 10580 10572 10566 10558 10549 10537 10530 10525 10525 10529 10539 10549 10558 10571 10584 10601 10619 10637 10657 10677 10690 10701 10707 10714 10717 10723 10726 10726 10729 10731 10736 10734 10723 10716 10718 10716 10709 10707 10702 10699 10695 10693 10689 10686 10683
10632 10618 10608 10595 10584 10572 10564 10556 10545 10534 10527 10522 10520 10522 10530 10541 10552 10565 10579 10593 10611 10629 10646 10666 10678 10690 10695 10701 10707 10713 10714 10715 10719 10721 10724 10721 10716 10710 10705 10703 10700 10693 10690 10685 10681 10678 10673 10670 10665
10640 10626 10612 10598 10583 10573 10562 10557 10546 10536 10527 10521 10518 10520 10526 10536 10546 10559 10576 10593 10606 10621 10638 10655 10667 10675 10682 10687 10694 10699 10698 10699 10704 10710 10708 10710 10706 10701 10696 10692 10688 10683 10676 10673 10667 10665 10659 10653 10651
10643 10630 10614 10599 10590 10578 10565 10555 10547 10538 10531 10525 10523 10524 10528 10536 10545 10557 10570 10588 10602 10616 10630 10643 10654 10664 10671 10677 10684 10686 10689 10690 10695 10699 10696 10696 10694 10688 10685 10682 10676 10670 10662 10659 10654 10649 10645 10641 10633
10646 10634 10620 10610 10596 10582 10570 10558 10552 10546 10539 10533 10530 10530 10533 10540 10547 10560 10571 10585 10598 10611 10626 10635 10643 10654 10660 10665 10670 10674 10677 10681 10682 10683 10679 10680 10679 10676 10672 10668 10664 10658 10652 10645 10638 10636 10629 10623 10615
10648 10637 10628 10615 10604 10592 10581 10568 10558 10552 10546 10543 10540 10539 10540 10544 10551 10561 10571 10581 10595 10609 10620 10627 10635 10641 10647 10653 10658 10666 10668 10668 10668 10669 10669 10667 10663 10661 10659 10653 10649 10644 10638 10631 10624 10617 10608 10602 10594
10653 10642 10633 10621 10610 10597 10586 10577 10566 10559 10556 10552 10550 10549 10552 10555 10559 10564 10570 10578 10589 10601 10606 10617 10625 10632 10637 10640 10647 10655 10652 10653 10654 10653 10653 10652 10649 10648 10644 10642 10633 10627 10620 10614 10605 10598 10591 10580 10571